FW2402 Weather Reports


time (UTC)temp
F
wind
direction
speed
knots
gust
knots
rain 1hr
in
rain 24hr
in
rain mn
in
humidity
%
barometer
mb
20260906174539 90 277 5.2 8.7 0.00 0.00 0.00 71 1011.0
20260906174024 88 243 5.2 10.4 0.00 0.00 0.00 72 1011.1
20260906173524 90 240 7.0 10.4 0.00 0.00 0.00 70 1011.2
20260906173048 90 274 4.3 11.3 0.00 0.00 0.00 71 1011.4
20260906172522 90 252 3.5 11.3 0.00 0.00 0.00 70 1011.5
20260906172022 91 263 5.2 11.3 0.00 0.00 0.00 68 1011.7
20260906171550 90 288 1.7 10.4 0.00 0.00 0.00 75 1011.6
20260906171021 90 272 6.1 10.4 0.00 0.00 0.00 70 1011.7
20260906170518 90 247 4.3 10.4 0.00 0.00 0.00 72 1011.6
20260906170045 90 227 1.7 7.8 0.00 0.00 0.00 72 1011.6
20260906165524 90 265 5.2 9.6 0.00 0.00 0.00 72 1011.7
20260906165024 89 293 5.2 9.6 0.00 0.00 0.00 71 1011.7
20260906164549 89 0 0.0 9.6 0.00 0.00 0.00 77 1011.9
20260906164028 89 195 3.5 9.6 0.00 0.00 0.00 74 1011.9
20260906163524 89 215 1.7 8.7 0.00 0.00 0.00 76 1012.1
20260906163056 89 261 4.3 8.7 0.00 0.00 0.00 75 1012.0
20260906162523 89 0 0.0 7.8 0.00 0.00 0.00 74 1012.1
20260906162023 89 217 3.5 7.8 0.00 0.00 0.00 77 1012.1
20260906161550 88 252 4.3 7.0 0.00 0.00 0.00 74 1012.2
20260906161021 88 0 1.7 7.8 0.00 0.00 0.00 76 1012.4
20260906160525 88 134 3.5 7.8 0.00 0.00 0.00 76 1012.4
20260906160055 87 248 2.6 7.8 0.00 0.00 0.00 76 1012.5
20260906155527 87 273 3.5 7.8 0.00 0.00 0.00 73 1012.6
20260906155029 88 279 2.6 7.0 0.00 0.00 0.00 76 1012.5
20260906154541 87 247 2.6 7.0 0.00 0.00 0.00 77 1012.6
20260906154024 85 236 3.5 7.0 0.00 0.00 0.00 76 1012.7
20260906153526 86 277 1.7 7.0 0.00 0.00 0.00 76 1012.7
20260906153043 87 314 2.6 7.0 0.00 0.00 0.00 77 1012.8
20260906152525 87 290 1.7 6.1 0.00 0.00 0.00 78 1012.8
20260906152024 86 273 3.5 6.1 0.00 0.00 0.00 78 1012.9
20260906151545 86 342 0.9 6.1 0.00 0.00 0.00 79 1013.0
20260906151018 86 329 0.9 6.1 0.00 0.00 0.00 78 1012.9
20260906150525 86 284 2.6 8.7 0.00 0.00 0.00 79 1013.0
20260906150040 86 231 3.5 8.7 0.00 0.00 0.00 77 1013.0
20260906145524 85 292 3.5 8.7 0.00 0.00 0.00 81 1012.9
20260906145024 84 271 2.6 7.0 0.00 0.00 0.00 81 1012.9
20260906144546 85 282 2.6 7.0 0.00 0.00 0.00 81 1013.0
20260906144022 85 300 1.7 6.1 0.00 0.00 0.00 84 1012.9
20260906143523 86 270 1.7 6.1 0.00 0.00 0.00 82 1012.9
20260906143050 85 0 0.9 7.8 0.00 0.00 0.00 87 1013.0
20260906142520 84 267 3.5 7.8 0.00 0.00 0.00 84 1013.0
20260906142025 84 292 0.9 7.8 0.00 0.00 0.00 85 1013.0
20260906141549 84 281 3.5 7.8 0.00 0.00 0.00 83 1013.0
20260906141025 85 268 4.3 6.1 0.00 0.00 0.00 86 1012.9
20260906140525 84 0 0.0 5.2 0.00 0.00 0.00 87 1012.9
20260906140055 84 301 1.7 5.2 0.00 0.00 0.00 86 1013.1
20260906135523 84 269 1.7 5.2 0.00 0.01 0.00 86 1013.0
20260906135023 83 278 2.6 5.2 0.00 0.01 0.00 87 1013.1
20260906134543 83 243 0.9 3.5 0.00 0.01 0.00 88 1013.1
20260906134023 83 0 0.9 5.2 0.00 0.01 0.00 89 1013.0
20260906133526 82 0 0.0 5.2 0.00 0.01 0.00 90 1013.0
20260906133106 82 269 1.7 5.2 0.00 0.01 0.00 88 1012.9
20260906132518 82 267 1.7 3.5 0.00 0.01 0.00 90 1012.9
20260906132018 81 269 1.7 3.5 0.00 0.01 0.00 90 1013.1
20260906131541 81 264 1.7 3.5 0.00 0.01 0.00 91 1013.1
20260906131024 80 282 0.9 5.2 0.00 0.01 0.00 92 1013.3
20260906130524 80 252 1.7 5.2 0.00 0.01 0.00 93 1013.4
20260906130104 80 270 1.7 2.6 0.00 0.01 0.00 94 1013.3
20260906125523 79 270 0.9 2.6 0.00 0.01 0.00 95 1013.1
20260906125023 79 266 0.0 3.5 0.00 0.01 0.00 96 1013.2
20260906124544 78 0 0.0 3.5 0.00 0.01 0.00 96 1013.1
20260906124023 78 240 0.0 3.5 0.00 0.01 0.00 97 1013.2
20260906123521 77 0 0.0 0.0 0.00 0.01 0.00 97 1013.1
20260906123041 77 0 0.0 0.0 0.00 0.01 0.00 97 1013.0
20260906122524 77 0 0.0 0.0 0.00 0.01 0.00 97 1013.0
20260906122021 76 0 0.0 0.0 0.00 0.01 0.00 97 1012.9
20260906121547 76 0 0.0 0.0 0.00 0.01 0.00 97 1012.9
20260906121024 76 0 0.0 0.0 0.00 0.01 0.00 97 1012.7
20260906120524 75 0 0.0 0.0 0.00 0.01 0.00 97 1012.6
20260906120043 75 0 0.0 0.0 0.00 0.01 0.00 97 1012.6
20260906115524 75 0 0.0 0.0 0.00 0.01 0.00 97 1012.6
20260906115023 74 0 0.0 0.0 0.00 0.01 0.00 97 1012.5
20260906114551 74 0 0.0 0.0 0.00 0.01 0.00 97 1012.5
20260906114020 73 0 0.0 0.0 0.00 0.01 0.00 97 1012.4
20260906113524 73 0 0.0 0.0 0.00 0.01 0.00 97 1012.5
20260906113042 73 0 0.0 0.0 0.00 0.01 0.00 97 1012.4
20260906112524 74 0 0.0 0.0 0.00 0.01 0.00 97 1012.3
20260906112026 73 0 0.0 0.0 0.00 0.01 0.00 97 1012.3
20260906111600 73 0 0.0 0.0 0.00 0.01 0.00 97 1012.3
20260906111020 73 0 0.0 0.0 0.00 0.01 0.00 97 1012.1
20260906110523 73 0 0.0 0.0 0.00 0.01 0.00 97 1012.1
20260906110042 73 0 0.0 0.0 0.00 0.01 0.00 97 1012.0
20260906105524 73 0 0.0 0.0 0.00 0.01 0.00 97 1011.9
20260906105022 74 0 0.0 0.0 0.00 0.01 0.00 96 1011.9
20260906104543 73 0 0.0 0.0 0.00 0.01 0.00 97 1011.7
20260906104020 73 0 0.0 0.0 0.00 0.01 0.00 96 1011.7
20260906103525 73 0 0.0 0.0 0.00 0.01 0.00 96 1011.6
20260906103040 73 0 0.0 0.0 0.00 0.01 0.00 96 1011.6
20260906102528 74 0 0.0 0.0 0.00 0.01 0.00 96 1011.6
20260906102024 74 0 0.0 0.0 0.00 0.01 0.00 96 1011.6
20260906101546 73 0 0.0 0.0 0.00 0.01 0.00 96 1011.5
20260906101024 74 0 0.0 0.0 0.00 0.01 0.00 96 1011.4
20260906100526 74 0 0.0 0.0 0.00 0.01 0.00 96 1011.4
20260906100055 74 0 0.0 0.0 0.00 0.01 0.00 96 1011.3
20260906095525 74 0 0.0 0.0 0.00 0.01 0.00 96 1011.4
20260906095018 74 0 0.0 0.0 0.00 0.01 0.00 96 1011.3
20260906094545 74 0 0.0 0.0 0.00 0.01 0.00 96 1011.3
20260906094024 74 0 0.0 0.0 0.00 0.01 0.00 96 1011.2
20260906093525 74 0 0.0 0.0 0.00 0.01 0.00 96 1011.2
20260906093042 74 0 0.0 0.0 0.00 0.01 0.00 96 1011.1
20260906092524 74 0 0.0 0.0 0.00 0.01 0.00 96 1011.0
20260906092024 74 0 0.0 0.0 0.00 0.01 0.00 96 1010.9
20260906091545 74 0 0.0 0.0 0.00 0.01 0.00 96 1011.0
20260906091024 74 0 0.0 0.0 0.00 0.01 0.00 96 1010.9
20260906090524 74 0 0.0 0.0 0.00 0.01 0.00 96 1010.9
20260906090045 74 0 0.0 0.0 0.00 0.01 0.00 96 1010.8
20260906085523 74 0 0.0 0.0 0.00 0.01 0.00 96 1010.7
20260906085020 74 0 0.0 0.0 0.00 0.01 0.00 96 1010.8
20260906084542 74 0 0.0 0.0 0.00 0.01 0.00 96 1010.8
20260906084027 75 0 0.0 0.0 0.00 0.01 0.00 96 1010.7
20260906083524 75 0 0.0 0.0 0.00 0.01 0.00 96 1010.7
20260906083050 75 0 0.0 0.0 0.00 0.01 0.00 96 1010.7
20260906082521 75 0 0.0 0.0 0.00 0.01 0.00 96 1010.7
20260906082023 75 0 0.0 0.0 0.00 0.01 0.00 96 1010.8
20260906081543 75 0 0.0 0.0 0.00 0.01 0.00 96 1010.8
20260906081023 74 0 0.0 0.0 0.00 0.01 0.00 95 1010.8
20260906080523 74 0 0.0 0.0 0.00 0.01 0.00 95 1010.8
20260906080046 75 0 0.0 0.0 0.00 0.01 0.00 95 1010.8
20260906075518 75 0 0.0 0.0 0.00 0.01 0.00 95 1010.9
20260906075020 75 0 0.0 0.0 0.00 0.01 0.00 95 1010.9
20260906074541 75 0 0.0 0.0 0.00 0.01 0.00 95 1010.8
20260906074017 75 0 0.0 0.0 0.00 0.01 0.00 95 1010.8
20260906073525 75 0 0.0 0.0 0.00 0.01 0.00 95 1010.9
20260906073042 75 0 0.0 0.0 0.00 0.01 0.00 95 1010.7
20260906072525 76 0 0.0 0.0 0.00 0.01 0.00 95 1010.8
20260906072024 76 0 0.0 0.0 0.00 0.01 0.00 95 1010.9
20260906071547 76 0 0.0 0.0 0.00 0.01 0.00 95 1010.9
20260906071020 76 0 0.0 0.0 0.00 0.01 0.00 95 1010.9
20260906070523 76 0 0.0 0.0 0.00 0.01 0.00 95 1010.9
20260906070041 76 0 0.0 0.0 0.00 0.01 0.00 95 1010.9
20260906065524 76 0 0.0 0.0 0.00 0.01 0.00 95 1011.0
20260906065021 76 0 0.0 0.0 0.00 0.01 0.00 95 1011.0
20260906064539 76 0 0.0 0.0 0.00 0.01 0.00 95 1011.1
20260906064028 76 0 0.0 0.0 0.00 0.01 0.00 95 1011.3
20260906063523 76 0 0.0 0.0 0.00 0.01 0.00 95 1011.3
20260906063041 76 0 0.0 0.0 0.00 0.01 0.00 95 1011.3
20260906062519 76 0 0.0 0.0 0.00 0.01 0.00 95 1011.4
20260906062021 76 0 0.0 0.0 0.00 0.01 0.00 95 1011.6
20260906061542 76 0 0.0 0.0 0.00 0.01 0.00 95 1011.6
20260906061024 76 0 0.0 0.0 0.00 0.01 0.00 95 1011.6
20260906060524 76 0 0.0 0.0 0.00 0.01 0.00 95 1011.8
20260906060048 76 0 0.0 0.0 0.00 0.01 0.00 95 1011.9
20260906055521 76 0 0.0 0.0 0.00 0.01 0.00 95 1011.9
20260906055024 76 0 0.0 0.0 0.00 0.01 0.00 95 1012.1
20260906054558 76 0 0.0 0.0 0.00 0.01 0.00 95 1012.1
20260906054021 76 0 0.0 0.0 0.00 0.01 0.00 95 1012.2
20260906053524 76 0 0.0 0.0 0.00 0.01 0.00 94 1012.2
20260906053042 77 0 0.0 0.0 0.00 0.01 0.00 94 1012.3
20260906052524 77 0 0.0 0.0 0.00 0.01 0.00 94 1012.4
20260906052024 77 0 0.0 0.0 0.00 0.01 0.00 94 1012.3
20260906051602 77 0 0.0 1.7 0.00 0.01 0.00 94 1012.3
20260906051024 77 0 0.0 1.7 0.00 0.01 0.00 94 1012.4
20260906050525 77 0 0.0 3.5 0.00 0.01 0.00 94 1012.5
20260906050046 77 196 0.0 3.5 0.00 0.01 0.00 94 1012.6
20260906045522 77 159 0.9 3.5 0.00 0.01 0.00 94 1012.6
20260906045019 77 0 0.0 0.0 0.00 0.01 0.00 94 1012.7
20260906044550 77 0 0.0 0.9 0.00 0.01 0.00 94 1012.7
20260906044021 77 0 0.0 0.9 0.00 0.01 0.00 94 1012.8
20260906043519 77 0 0.0 0.9 0.00 0.01 0.00 94 1012.9
20260906043044 77 0 0.0 1.7 0.00 0.01 0.00 94 1012.8
20260906042518 77 0 0.0 2.6 0.00 0.01 0.00 94 1012.8
20260906042021 77 124 0.0 2.6 0.00 0.01 0.00 94 1012.7
20260906041540 77 260 0.9 2.6 0.00 0.01 0.00 94 1012.7
20260906041027 77 260 0.0 1.7 0.00 0.01 0.00 94 1012.7
20260906040524 78 260 0.0 1.7 0.00 0.01 0.00 94 1012.7
20260906040122 78 260 0.0 2.6 0.00 0.01 0.00 94 1012.6
20260906035522 78 260 0.9 2.6 0.00 0.01 0.01 94 1012.8
20260906035022 78 0 0.0 0.0 0.00 0.01 0.01 94 1012.7
20260906034545 78 0 0.0 0.9 0.00 0.01 0.01 94 1012.8
20260906034025 78 0 0.0 1.7 0.00 0.01 0.01 94 1012.8
20260906033524 78 0 0.9 1.7 0.00 0.01 0.01 94 1012.7
20260906033103 77 0 0.0 1.7 0.00 0.01 0.01 94 1012.7
20260906032523 77 0 0.0 0.0 0.00 0.01 0.01 94 1012.8
20260906032024 77 0 0.0 0.0 0.00 0.01 0.01 94 1012.8
20260906031542 78 0 0.0 0.0 0.00 0.01 0.01 94 1012.8
20260906031021 78 0 0.0 0.0 0.00 0.01 0.01 94 1012.8
20260906030522 78 0 0.0 0.0 0.00 0.01 0.01 93 1012.7
20260906030041 78 0 0.0 0.0 0.00 0.01 0.01 93 1012.6
20260906025524 78 0 0.0 1.7 0.00 0.01 0.01 93 1012.6
20260906025024 78 0 0.0 2.6 0.00 0.01 0.01 93 1012.7
20260906024600 78 0 0.0 2.6 0.00 0.01 0.01 93 1012.5
20260906024027 78 260 0.0 2.6 0.00 0.01 0.01 93 1012.5
20260906023526 78 0 0.0 0.0 0.00 0.01 0.01 93 1012.6
20260906023042 78 0 0.0 0.0 0.00 0.01 0.01 93 1012.6
20260906022523 78 0 0.0 0.0 0.00 0.01 0.01 93 1012.6
20260906022021 78 0 0.0 0.0 0.00 0.01 0.01 93 1012.6
20260906021542 78 0 0.0 0.0 0.00 0.01 0.01 92 1012.5
20260906021018 78 0 0.0 0.0 0.00 0.01 0.01 93 1012.5
20260906020525 78 0 0.0 0.0 0.00 0.01 0.01 93 1012.4
20260906020042 78 0 0.0 0.0 0.00 0.01 0.01 92 1012.4
20260906015521 78 0 0.0 0.0 0.00 0.01 0.01 91 1012.5
20260906015024 79 0 0.0 0.0 0.00 0.01 0.01 91 1012.6
20260906014548 79 0 0.0 0.0 0.00 0.01 0.01 91 1012.6
20260906014025 79 0 0.0 0.0 0.00 0.01 0.01 91 1012.4
20260906013522 80 0 0.0 0.0 0.00 0.01 0.01 90 1012.3
20260906013042 80 0 0.0 0.0 0.00 0.01 0.01 89 1012.2
20260906012522 80 0 0.0 0.0 0.00 0.01 0.01 89 1012.2
20260906012021 80 0 0.0 0.0 0.00 0.01 0.01 89 1012.1
20260906011540 80 0 0.0 0.0 0.00 0.01 0.01 90 1011.8
20260906011023 79 0 0.0 0.9 0.00 0.01 0.01 90 1011.7
20260906010525 80 0 0.0 0.9 0.00 0.01 0.01 90 1011.8
20260906010052 80 0 0.0 0.9 0.00 0.01 0.01 89 1011.8
20260906005525 81 0 0.0 0.9 0.00 0.01 0.01 87 1011.8
20260906005025 81 0 0.0 0.9 0.00 0.01 0.01 86 1011.8
20260906004543 82 0 0.0 2.6 0.00 0.01 0.01 85 1011.9
20260906004026 82 0 0.0 2.6 0.00 0.01 0.01 85 1011.8
20260906003520 82 260 0.9 3.5 0.00 0.01 0.01 85 1011.8
20260906003053 82 260 1.7 3.5 0.00 0.01 0.01 85 1011.8
20260906002518 82 260 1.7 3.5 0.00 0.01 0.01 84 1011.7
20260906002025 83 267 0.9 2.6 0.00 0.01 0.01 83 1011.7
20260906001549 83 0 0.0 5.2 0.00 0.01 0.01 83 1011.6
20260906001025 83 267 1.7 5.2 0.00 0.01 0.01 83 1011.7
20260906000525 83 0 1.7 6.1 0.00 0.01 0.01 82 1011.7
20260906000051 83 268 0.9 6.1 0.00 0.01 0.01 82 1011.5
20260905235524 84 261 3.5 6.1 0.00 0.01 0.01 82 1011.6
20260905235024 84 295 2.6 6.1 0.00 0.01 0.01 81 1011.5
20260905234547 84 286 3.5 6.1 0.00 0.01 0.01 80 1011.6
20260905234023 85 276 2.6 7.0 0.00 0.01 0.01 79 1011.7
20260905233518 85 254 4.3 7.0 0.00 0.01 0.01 78 1011.7
20260905233051 86 272 4.3 7.8 0.00 0.01 0.01 78 1011.6
20260905232524 86 271 3.5 7.8 0.00 0.01 0.01 78 1011.6
20260905232024 86 281 2.6 7.0 0.00 0.01 0.01 78 1011.4
20260905231548 86 250 3.5 7.8 0.00 0.01 0.01 78 1011.4
20260905231024 87 257 3.5 7.8 0.00 0.01 0.01 76 1011.4
20260905230524 87 258 5.2 7.8 0.00 0.01 0.01 75 1011.3
20260905230042 87 281 4.3 7.8 0.00 0.01 0.01 75 1011.5
20260905225523 87 257 5.2 8.7 0.00 0.01 0.01 75 1011.5
20260905225023 88 270 5.2 9.6 0.00 0.01 0.01 74 1011.4
20260905224611 88 275 4.3 11.3 0.00 0.01 0.01 73 1011.5
20260905224025 88 306 6.1 11.3 0.00 0.01 0.01 73 1011.3
20260905223525 88 244 6.1 8.7 0.00 0.01 0.01 73 1011.5
20260905223045 88 281 4.3 8.7 0.00 0.01 0.01 72 1011.5
20260905222524 88 279 5.2 9.6 0.00 0.01 0.01 72 1011.4
20260905222023 89 279 3.5 9.6 0.00 0.01 0.01 70 1011.3
20260905221543 89 271 7.0 10.4 0.00 0.01 0.01 70 1011.3
20260905221023 89 259 6.1 10.4 0.00 0.01 0.01 70 1011.3
20260905220522 89 274 6.1 9.6 0.00 0.01 0.01 70 1011.5
20260905220051 89 263 5.2 9.6 0.00 0.01 0.01 71 1011.5
20260905215526 89 268 2.6 7.8 0.00 0.10 0.01 71 1011.5
20260905215025 89 277 4.3 12.2 0.00 0.10 0.01 71 1011.6
20260905214551 89 269 6.1 12.2 0.00 0.10 0.01 69 1011.6
20260905214024 90 292 7.0 12.2 0.00 0.10 0.01 68 1011.7
20260905213525 90 272 7.0 10.4 0.00 0.10 0.01 70 1011.6
20260905213045 90 294 6.1 10.4 0.00 0.10 0.01 69 1011.5
20260905212530 90 259 7.0 10.4 0.00 0.10 0.01 68 1011.6
20260905212022 90 273 7.0 10.4 0.00 0.10 0.01 70 1011.6
20260905211547 90 276 5.2 9.6 0.00 0.10 0.01 69 1011.6
20260905211018 90 234 3.5 12.2 0.00 0.10 0.01 71 1011.6
20260905210518 90 268 6.1 12.2 0.00 0.10 0.01 70 1011.6
20260905210049 90 281 7.8 11.3 0.00 0.10 0.01 69 1011.5
20260905205524 90 282 5.2 11.3 0.00 0.55 0.01 67 1011.5
20260905205024 90 261 7.0 11.3 0.00 0.55 0.01 68 1011.6
20260905204544 90 267 5.2 9.6 0.00 0.55 0.01 67 1011.6
20260905204024 90 265 6.1 9.6 0.00 0.55 0.01 70 1011.6
20260905203521 90 263 3.5 9.6 0.00 0.55 0.01 69 1011.6
20260905203043 90 267 5.2 11.3 0.00 0.55 0.01 67 1011.5
20260905202522 90 294 5.2 11.3 0.00 0.55 0.01 68 1011.5
20260905202020 90 242 7.8 12.2 0.00 0.55 0.01 67 1011.5
20260905201544 90 269 7.8 12.2 0.00 0.55 0.01 67 1011.6
20260905201018 90 288 7.0 10.4 0.00 0.55 0.01 67 1011.7
20260905200527 90 257 6.1 11.3 0.00 0.55 0.01 66 1011.8
20260905200043 90 261 6.1 11.3 0.00 0.55 0.01 67 1011.7
20260905195523 90 282 6.1 9.6 0.00 0.58 0.01 68 1011.7
20260905195028 90 277 7.0 13.0 0.00 0.58 0.01 68 1011.7
20260905194549 90 218 9.6 13.0 0.00 0.58 0.01 67 1011.7
20260905194021 90 275 8.7 13.0 0.00 0.58 0.01 67 1011.7
20260905193522 90 274 7.8 12.2 0.00 0.58 0.01 69 1011.7
20260905193043 90 285 7.0 13.0 0.00 0.58 0.01 70 1011.7
20260905192519 90 268 7.8 13.0 0.00 0.58 0.01 69 1011.8
20260905192023 90 266 7.8 13.0 0.00 0.58 0.01 70 1011.8
20260905191541 90 248 6.1 11.3 0.00 0.58 0.01 70 1011.9
20260905191021 90 275 6.1 13.9 0.00 0.58 0.01 69 1012.1
20260905190524 89 271 6.1 13.9 0.00 0.58 0.01 69 1012.1
20260905190048 89 268 8.7 14.8 0.00 0.58 0.01 70 1012.1
20260905185523 91 254 8.7 14.8 0.00 0.61 0.01 69 1012.0
20260905185023 90 288 7.0 13.0 0.00 0.61 0.01 69 1012.0
20260905184555 90 261 6.1 13.0 0.00 0.61 0.01 69 1012.0
20260905184021 91 269 8.7 13.0 0.00 0.61 0.01 69 1012.1
20260905183522 91 238 7.0 12.2 0.00 0.61 0.01 72 1012.0
20260905183050 90 243 7.0 11.3 0.00 0.61 0.01 70 1011.9
20260905182525 90 257 4.3 11.3 0.00 0.61 0.01 76 1012.2
20260905182026 90 257 5.2 11.3 0.00 0.61 0.01 73 1012.3
20260905181548 89 277 2.6 7.8 0.00 0.61 0.01 78 1012.4
20260905181023 89 242 0.9 4.3 0.00 0.61 0.01 80 1012.4
20260905180524 87 253 0.9 4.3 0.00 0.61 0.01 82 1012.5
20260905180047 87 242 0.0 4.3 0.00 0.61 0.01 82 1012.5
20260905175518 86 219 0.9 4.3 0.00 0.61 0.01 83 1012.7
20260905175019 85 254 0.0 3.5 0.00 0.61 0.01 83 1012.7